| time (UTC) | temp F | wind direction | speed MPH | gust MPH | rain 1hr in | rain 24hr in | rain mn in | humidity % | barometer mb |
| 20260504081526 | 45 | 360 | 0.0 | 1.0 | 0.00 | 0.00 | 0.00 | 65 | 1004.4 |
| 20260504050004 | 43 | 360 | 1.0 | 2.0 | 0.00 | 0.00 | 0.00 | 68 | 1003.8 |
| 20260504044501 | 45 | 360 | 0.0 | 2.0 | 0.00 | 0.00 | 0.00 | 65 | 1003.8 |
| 20260504043105 | 46 | 360 | 0.0 | 1.0 | 0.00 | 0.00 | 0.00 | 60 | 1003.9 |
| 20260504041600 | 47 | 360 | 0.0 | 1.0 | 0.00 | 0.00 | 0.00 | 56 | 1003.8 |
| 20260504040052 | 48 | 360 | 0.0 | 2.0 | 0.00 | 0.00 | 0.00 | 53 | 1003.7 |
| 20260504034556 | 48 | 360 | 0.0 | 2.0 | 0.00 | 0.00 | 0.00 | 53 | 1003.7 |
| 20260504033057 | 48 | 360 | 0.0 | 0.0 | 0.00 | 0.00 | 0.00 | 52 | 1003.8 |
| 20260504031602 | 49 | 360 | 0.0 | 1.0 | 0.00 | 0.00 | 0.00 | 51 | 1003.7 |
| 20260504030110 | 49 | 360 | 0.0 | 1.0 | 0.00 | 0.00 | 0.00 | 50 | 1003.7 |
| 20260504024551 | 49 | 360 | 0.0 | 2.0 | 0.00 | 0.00 | 0.00 | 51 | 1003.6 |
| 20260504023048 | 49 | 360 | 0.0 | 1.0 | 0.00 | 0.00 | 0.00 | 49 | 1003.5 |
| 20260504021548 | 50 | 360 | 0.0 | 2.0 | 0.00 | 0.00 | 0.00 | 48 | 1003.6 |
| 20260504020047 | 51 | 360 | 0.0 | 3.0 | 0.00 | 0.00 | 0.00 | 47 | 1003.6 |
| 20260504014546 | 51 | 360 | 0.0 | 4.0 | 0.00 | 0.00 | 0.00 | 46 | 1003.5 |
| 20260504013049 | 51 | 360 | 1.0 | 5.0 | 0.00 | 0.00 | 0.00 | 45 | 1003.4 |
| 20260504011545 | 51 | 360 | 1.0 | 3.0 | 0.00 | 0.00 | 0.00 | 45 | 1003.3 |
| 20260504010044 | 51 | 360 | 1.0 | 2.0 | 0.00 | 0.00 | 0.00 | 43 | 1003.1 |
| 20260504004544 | 52 | 360 | 0.0 | 4.0 | 0.00 | 0.00 | 0.00 | 41 | 1002.8 |
| 20260504003046 | 53 | 360 | 1.0 | 9.0 | 0.00 | 0.00 | 0.00 | 39 | 1002.7 |
| 20260504001543 | 53 | 360 | 1.0 | 3.0 | 0.00 | 0.00 | 0.00 | 37 | 1002.4 |
| 20260504000101 | 54 | 360 | 1.0 | 3.0 | 0.00 | 0.00 | 0.00 | 37 | 1002.3 |
| 20260503234540 | 0 | 0.0 | 0.0 | 0.00 | 0.00 | 0.00 | 1002.2 | ||
| 20260503233040 | 55 | 360 | 1.0 | 5.0 | 0.00 | 0.00 | 0.00 | 35 | 1001.9 |
| 20260503231534 | 0 | 0.0 | 0.0 | 0.00 | 0.00 | 0.00 | 1001.8 | ||
| 20260503224530 | 57 | 360 | 2.0 | 8.0 | 0.00 | 0.00 | 0.00 | 33 | 1001.4 |
| 20260503223027 | 59 | 360 | 2.0 | 11.0 | 0.00 | 0.00 | 0.00 | 31 | 1001.5 |
| 20260503221527 | 59 | 360 | 3.0 | 10.0 | 0.00 | 0.00 | 0.00 | 34 | 1001.5 |
| 20260503220027 | 60 | 360 | 2.0 | 14.0 | 0.00 | 0.00 | 0.00 | 34 | 1001.3 |
| 20260503214525 | 60 | 360 | 2.0 | 6.0 | 0.00 | 0.00 | 0.00 | 33 | 1001.4 |
| 20260503213023 | 58 | 360 | 1.0 | 5.0 | 0.00 | 0.00 | 0.00 | 36 | 1001.4 |
| 20260503211523 | 56 | 360 | 3.0 | 9.0 | 0.00 | 0.00 | 0.00 | 36 | 1001.3 |
| 20260503210022 | 56 | 360 | 2.0 | 8.0 | 0.00 | 0.00 | 0.00 | 38 | 1001.5 |
| 20260503204522 | 58 | 360 | 3.0 | 9.0 | 0.00 | 0.00 | 0.00 | 37 | 1001.3 |
| 20260503203024 | 58 | 360 | 4.0 | 11.0 | 0.00 | 0.00 | 0.00 | 38 | 1001.5 |
| 20260503201518 | 57 | 360 | 3.0 | 10.0 | 0.00 | 0.00 | 0.00 | 40 | 1001.5 |
| 20260503200014 | 55 | 360 | 4.0 | 15.0 | 0.00 | 0.00 | 0.00 | 41 | 1001.6 |
| 20260503194613 | 55 | 360 | 3.0 | 20.0 | 0.00 | 0.00 | 0.00 | 40 | 1001.8 |
| 20260503193012 | 56 | 360 | 4.0 | 16.0 | 0.00 | 0.00 | 0.00 | 40 | 1001.9 |
| 20260503191511 | 55 | 360 | 3.0 | 13.0 | 0.00 | 0.00 | 0.00 | 38 | 1001.9 |
| 20260503190008 | 52 | 360 | 4.0 | 17.0 | 0.00 | 0.00 | 0.00 | 43 | 1002.0 |
| 20260503184513 | 52 | 360 | 4.0 | 12.0 | 0.00 | 0.00 | 0.00 | 41 | 1001.9 |
| 20260503183007 | 53 | 360 | 3.0 | 11.0 | 0.00 | 0.00 | 0.00 | 41 | 1002.0 |
| 20260503181507 | 53 | 360 | 3.0 | 15.0 | 0.00 | 0.00 | 0.00 | 42 | 1001.9 |
| 20260503180006 | 53 | 360 | 4.0 | 13.0 | 0.00 | 0.00 | 0.00 | 41 | 1001.9 |
| 20260503174507 | 53 | 360 | 4.0 | 13.0 | 0.00 | 0.00 | 0.00 | 41 | 1001.8 |
| 20260503173006 | 54 | 360 | 4.0 | 8.0 | 0.00 | 0.00 | 0.00 | 44 | 1001.7 |
| 20260503171501 | 52 | 360 | 4.0 | 11.0 | 0.00 | 0.00 | 0.00 | 42 | 1002.0 |
| 20260503170107 | 51 | 360 | 3.0 | 14.0 | 0.00 | 0.00 | 0.00 | 44 | 1001.9 |